Preview of NWS' New Version of Forecast
This preview is not operational and should not be used for support decisions.

Regional Weather Roundup (RWR)

Issued by National Weather Service (NWS)

                            
000
ASUS43 KLSX 191507
RWRMO 

WEATHER SUMMARY FOR MISSOURI
NATIONAL WEATHER SERVICE SPRINGFIELD MO
1000 AM CDT FRI APR 19 2019

NOTE: "FAIR" INDICATES FEW OR NO CLOUDS BELOW 12,000 FEET WITH NO
       SIGNIFICANT WEATHER AND/OR OBSTRUCTIONS TO VISIBILITY.
       CURRENT SKY AND/OR WEATHER CONDITIONS ARE NOT AVAILABLE FOR
       CHILLICOTHE AND FARMINGTON.

MOZ001>031-035>038-043-044-053-054-191600-
...NORTHERN AND WESTERN MISSOURI...
  
CITY           SKY/WX    TMP DP  RH WIND       PRES   REMARKS
KANSAS CTY INT MOSUNNY   52  38  58 N18       30.05R                  
KANSAS C DTWN  SUNNY     53  37  54 N13       30.04R                  
LEE'S SUMMIT   MOSUNNY   50  38  63 N15G26    30.03R                  
ST JOSEPH      SUNNY     53  38  56 N18G25    30.08R                  
CHILLICOTHE      N/A     53  35  50 N9G22     30.02S                  
KIRKSVILLE     MOSUNNY   50  37  61 N22G31    29.98S                  
     
$$
MOZ066>068-077>081-088>096-101>105-191600-
...SOUTHWEST MISSOURI...
  
CITY           SKY/WX    TMP DP  RH WIND       PRES   REMARKS
SPRINGFIELD    CLOUDY    50  37  61 N22G40    29.93S                  
JOPLIN         MOSUNNY   52  41  66 N18G28    30.01S                  
BRANSON        CLOUDY    48  37  66 NW21G28   29.92S                  
               
$$
MOZ032>034-039>042-045>050-055>058-069>072-191600-
...CENTRAL MISSOURI...  
  
CITY           SKY/WX    TMP DP  RH WIND       PRES   REMARKS
COLUMBIA       PTSUNNY   49  38  65 N21G29    29.94R                  
JEFFERSON CITY CLOUDY    48  35  60 N12G22    29.94R                  
ROLLA          CLOUDY    44  34  67 N18G29    29.89R                  
SEDALIA        MOSUNNY   50  41  71 N22G31    29.98S                  
WHITEMAN AFB   MOSUNNY   51  40  66 N18G25    29.95S                  
WARRENSBURG    MOSUNNY   50  37  62 N16G22    30.01S                  
OSAGE BEACH    CLOUDY    48  36  63 N9G25     29.95R                  
               
$$
MOZ051-052-059>065-191600-
...EAST CENTRAL MISSOURI...
  
CITY           SKY/WX    TMP DP  RH WIND       PRES   REMARKS
ST LOUIS INTL  CLOUDY    46  36  68 N14G26    29.84S                  
SPIRIT OF STL  CLOUDY    48  38  68 N14G21    29.85S                  
ST CHARLES     CLOUDY    47  37  68 N18G31    29.85S                  
                   
$$
MOZ072>076-082>087-097>100-106>115-191600-
...SOUTH CENTRAL AND SOUTHEAST MISSOURI...
  
CITY           SKY/WX    TMP DP  RH WIND       PRES   REMARKS
CAPE GIRARDEAU CLOUDY    47  41  80 N22G31    29.74S                  
FARMINGTON     CLOUDY    45  40  82 NW17G26   29.80S                  
POPLAR BLUFF   CLOUDY    48  40  73 N18G33    29.76S                  
WEST PLAINS    CLOUDY    46  36  68 N17G32    29.85R                  
                                       
$$